[[{"header":{"parameterUnit":"m.s-1","parameterCategory":2,"la1":30.2991,"la2":30.254,"lo1":-89.0895,"lo2":-89.0444,"dy":0.0017,"dx":0.0017,"nx":28,"ny":28,"refTime":"2026-02-01T09:00:00:Z","depth":"0","parameterNumber":2,"parameterNumberName":"U-component_of_CURRENTS"},"data":[0,0,0,0,0,0,0,0,0,0,0,0,0,0,0,0,0,0,0,0,0,0,0,0,0,0,0,0,0,0,0,0,0,0,0,0,0,0,0,0,0,0,0,0,0,0,0,0,0,0,0,0,0,0,0,0,0,0,-0.2546,-0.2549,0,-0.2749,-0.2751,-0.2753,-0.2619,-0.2613,-0.2607,-0.2602,-0.2563,-0.2566,-0.2571,0,0,0,0,0,0,0,0,0,0,0,0,0,-0.2273,-0.2277,-0.2546,-0.2549,-0.2552,-0.2749,-0.2751,-0.2753,-0.262,-0.2613,-0.2606,-0.26,-0.2561,-0.2566,-0.2571,0,0,0,0,0,0,0,0,0,0,0,0,0,-0.2419,-0.2278,-0.2545,-0.2514,-0.2514,-0.2749,-0.2751,-0.2754,-0.2621,-0.2613,-0.2604,-0.2597,-0.256,-0.2566,-0.2572,-0.2776,0,0,-0.259,-0.2593,0,0,0,0,0,0,0,0,-0.241,-0.2427,-0.2516,-0.2517,-0.2517,-0.2656,-0.2641,-0.2751,-0.2623,-0.2573,-0.2602,-0.2592,-0.2582,-0.2586,-0.2636,-0.2774,-0.2772,-0.2591,-0.2595,-0.2597,-0.2599,0,0,0,0,0,0,0,-0.24,-0.242,-0.2619,-0.252,-0.2521,-0.257,-0.2578,-0.2663,-0.2612,-0.2577,-0.2569,-0.2606,-0.2578,-0.2631,-0.2634,-0.2772,-0.2591,-0.2596,-0.26,-0.2602,-0.2659,-0.2657,0,0,0,0,0,0,-0.2387,-0.241,-0.2613,-0.2626,-0.245,-0.2581,-0.2591,-0.2614,-0.2616,-0.2612,-0.2613,-0.2599,-0.2624,-0.2627,-0.2631,-0.2562,-0.2597,-0.2603,-0.2607,-0.2662,-0.2659,-0.2657,0,0,0,0,0,0,-0.238,-0.2403,-0.2605,-0.2528,-0.2557,-0.2594,-0.2622,-0.2623,-0.2646,-0.2647,-0.2635,-0.2631,-0.2618,-0.2623,-0.2619,-0.2569,-0.2606,-0.2611,-0.2664,-0.2661,-0.2658,-0.2621,0,0,0,0,0,0,-0.2371,-0.2399,-0.2409,-0.2527,-0.2562,-0.2701,-0.2631,-0.2633,-0.2687,-0.2669,-0.2662,-0.2651,-0.2612,-0.261,-0.2625,-0.2578,-0.2616,-0.2667,-0.2663,-0.2659,-0.2625,-0.2617,-0.261,0,0,0,0,0,-0.2361,-0.2441,-0.2408,-0.2433,-0.2574,-0.2704,-0.2726,-0.272,-0.2696,-0.271,-0.2665,-0.2649,-0.259,-0.2617,-0.2634,-0.2587,-0.2669,-0.2664,-0.2659,-0.2628,-0.2618,-0.261,0,0,0,0,0,0,-0.2317,-0.244,-0.2404,-0.2506,-0.2565,-0.2682,-0.2745,-0.2747,-0.2748,-0.2719,-0.2684,-0.2672,-0.2625,-0.264,-0.2669,-0.2581,-0.2608,-0.2606,-0.2577,-0.2569,-0.2561,-0.2554,-0.2621,0,0,0,0,0,-0.2319,-0.2409,-0.249,-0.2565,-0.261,-0.2679,-0.2736,-0.273,-0.2763,-0.2756,-0.2727,-0.2685,-0.2643,-0.2628,-0.2606,-0.2637,-0.2636,-0.2594,-0.2587,-0.2581,-0.2581,-0.2541,-0.2531,-0.2641,-0.2641,-0.2641,0,0,-0.2316,-0.2408,-0.2444,-0.2563,-0.2628,-0.2663,-0.269,-0.279,-0.2758,-0.2762,-0.2709,-0.2685,-0.2644,-0.2595,-0.2577,-0.2593,-0.2547,-0.2575,-0.257,-0.2573,-0.2535,-0.2524,-0.2515,-0.2637,-0.2638,-0.2638,0,0,-0.2389,-0.2445,-0.2528,-0.2575,-0.2678,-0.2706,-0.2728,-0.2809,-0.2776,-0.2775,-0.2704,-0.2649,-0.2648,-0.2559,-0.2528,-0.2497,-0.2508,-0.2482,-0.2453,-0.2414,-0.2405,-0.2397,-0.2385,-0.2376,-0.2479,-0.2479,-0.2479,0,-0.2364,-0.2461,-0.2567,-0.2634,-0.2659,-0.2708,-0.2735,-0.2742,-0.2772,-0.2753,-0.2723,-0.2644,-0.2608,-0.2519,-0.2459,-0.2477,-0.248,-0.2495,-0.2406,-0.2399,-0.2392,-0.2381,-0.2372,-0.2477,-0.2477,-0.2477,-0.2478,0,-0.2477,-0.251,-0.2586,-0.2637,-0.2674,-0.274,-0.2736,-0.2731,-0.2707,-0.269,-0.2618,-0.257,-0.251,-0.2471,-0.2458,-0.2373,-0.24,-0.2404,-0.2437,-0.2379,-0.237,-0.2362,-0.2474,-0.2474,-0.2475,-0.2476,0,0,-0.2516,-0.2629,-0.2639,-0.2621,-0.2675,-0.2719,-0.2679,-0.2668,-0.2638,-0.26,-0.2551,-0.2445,-0.2442,-0.2404,-0.2371,-0.2328,-0.2266,-0.2349,-0.2348,-0.2351,-0.2209,-0.2154,-0.214,-0.2269,-0.2268,-0.2266,-0.2226,0,-0.2542,-0.2635,-0.268,-0.2669,-0.269,-0.2686,-0.2642,-0.2618,-0.2591,-0.2549,-0.2488,-0.2429,-0.2406,-0.238,-0.2329,-0.2286,-0.2243,-0.2278,-0.2253,-0.2252,-0.2221,-0.2126,-0.2,-0.1948,-0.2218,-0.2217,-0.2216,0,-0.2611,-0.2659,-0.268,-0.2656,-0.2668,-0.2646,-0.26,-0.2569,-0.2521,-0.2504,-0.2452,-0.2425,-0.2336,-0.2335,-0.2231,-0.2266,-0.2231,-0.2201,-0.2199,-0.2155,-0.2179,-0.2046,-0.1922,-0.1884,-0.2203,-0.2204,-0.2205,0,-0.259,-0.2637,-0.2646,-0.2643,-0.2636,-0.2616,-0.2597,-0.2558,-0.252,-0.2481,-0.2462,-0.2385,-0.2335,-0.2279,-0.2209,-0.2226,-0.212,-0.2135,-0.205,-0.2049,-0.1936,-0.1926,-0.178,-0.2056,-0.2057,-0.2057,-0.2057,0,-0.2601,-0.2591,-0.2635,-0.263,-0.2593,-0.2604,-0.2552,-0.2532,-0.25,-0.2457,-0.2439,-0.2391,-0.2319,-0.2256,-0.2209,-0.2096,-0.2113,-0.2022,-0.2015,-0.1919,-0.1908,-0.1869,-0.1912,-0.2055,-0.2056,-0.2056,-0.2056,0,-0.2552,-0.2598,-0.2584,-0.2591,-0.258,-0.2552,-0.2508,-0.2472,-0.2473,-0.2422,-0.2408,-0.2371,-0.2297,-0.2231,-0.2137,-0.2073,-0.1942,-0.1951,-0.1855,-0.1835,-0.171,-0.1757,-0.1666,-0.1619,-0.1841,-0.1839,-0.1837,0,-0.2531,-0.2534,-0.2539,-0.2511,-0.2505,-0.247,-0.2433,-0.2436,-0.2407,-0.2402,-0.2372,-0.2318,-0.2242,-0.2097,-0.1976,-0.1864,-0.1873,-0.1696,-0.1675,-0.1655,-0.1703,-0.176,-0.1732,-0.1522,-0.1518,-0.1515,-0.1512,0,-0.2441,-0.2458,-0.2442,-0.2406,-0.2372,-0.2333,-0.2303,-0.2284,-0.23,-0.2281,-0.2254,-0.2209,-0.2087,-0.1894,-0.1757,-0.168,-0.164,-0.1624,-0.1604,-0.1428,-0.1477,-0.1444,-0.1637,-0.1482,-0.1485,-0.1487,-0.1489,-0.149,-0.2339,-0.231,-0.2294,-0.2239,-0.2218,-0.2177,-0.2097,-0.2113,-0.207,-0.2014,-0.2087,-0.1966,-0.1829,-0.1603,-0.1519,-0.1316,-0.144,-0.1243,-0.1302,-0.1362,-0.1296,-0.1437,-0.1276,-0.1277,-0.1279,-0.128,-0.1281,0,-0.2167,-0.2148,-0.2108,-0.2035,-0.1961,-0.2008,-0.1969,-0.1882,-0.181,-0.1806,-0.1755,-0.1607,-0.1409,-0.1293,-0.1096,-0.1003,-0.0984,-0.0981,-0.1012,-0.0998,-0.1088,-0.1049,-0.0827,-0.0827,-0.0827,-0.0828,-0.0828,-0.0828,-0.2061,-0.1963,-0.195,-0.1775,-0.1738,-0.1594,-0.1552,-0.1495,-0.1446,-0.1318,-0.1231,-0.1211,-0.1146,-0.1127,-0.0938,-0.0858,-0.085,-0.082,-0.0891,-0.0938,-0.0966,-0.0994,-0.0961,-0.0725,-0.0725,-0.0715,-0.0715,-0.0715]},{"header":{"parameterUnit":"m.s-1","parameterCategory":2,"la1":30.2991,"la2":30.254,"lo1":-89.0895,"lo2":-89.0444,"dy":0.0017,"dx":0.0017,"nx":28,"ny":28,"refTime":"2026-02-01T09:00:00:Z","depth":"0","parameterNumber":3,"parameterNumberName":"V-component_of_CURRENTS"},"data":[0,0,0,0,0,0,0,0,0,0,0,0,0,0,0,0,0,0,0,0,0,0,0,0,0,0,0,0,0,0,0,0,0,0,0,0,0,0,0,0,0,0,0,0,0,0,0,0,0,0,0,0,0,0,0,0,0,0,-0.0312,-0.0311,0,-0.0232,-0.0231,-0.0229,-0.0196,-0.0197,-0.0197,-0.0198,-0.0026,-0.0021,-0.0016,0,0,0,0,0,0,0,0,0,0,0,0,0,-0.031,-0.031,-0.0312,-0.0311,-0.0311,-0.0232,-0.0231,-0.0229,-0.0196,-0.0197,-0.0197,-0.0198,-0.0028,-0.0022,-0.0016,0,0,0,0,0,0,0,0,0,0,0,0,0,-0.0274,-0.0311,-0.0312,-0.0289,-0.0286,-0.0233,-0.0231,-0.0229,-0.0196,-0.0197,-0.0198,-0.0198,-0.003,-0.0023,-0.0015,0.0052,0,0,0.0009,0.0012,0,0,0,0,0,0,0,0,-0.0276,-0.0273,-0.0293,-0.029,-0.0287,-0.023,-0.0167,-0.0132,-0.0195,-0.0224,-0.0198,-0.0199,-0.0088,-0.0076,-0.0053,0.006,0.0068,0.0009,0.0014,0.0017,0.002,0,0,0,0,0,0,0,-0.0279,-0.0276,-0.0275,-0.0292,-0.0289,-0.024,-0.0236,-0.016,-0.0146,-0.0222,-0.0221,-0.022,-0.0086,-0.006,-0.0048,0.007,0.0009,0.0016,0.0021,0.0024,0.0257,0.0258,0,0,0,0,0,0,-0.0305,-0.0279,-0.0278,-0.0273,-0.029,-0.024,-0.0235,-0.0243,-0.0149,-0.0138,-0.0219,-0.0219,-0.0073,-0.0057,-0.0042,0.0015,0.0017,0.0025,0.0029,0.0255,0.0257,0.0259,0,0,0,0,0,0,-0.0305,-0.0306,-0.0281,-0.0278,-0.0272,-0.024,-0.0248,-0.0241,-0.0219,-0.0149,-0.0135,-0.0207,-0.0073,-0.0053,0.0043,0.0023,0.0028,0.0035,0.0254,0.0256,0.0258,0.0149,0,0,0,0,0,0,-0.0306,-0.0306,-0.0311,-0.028,-0.0273,-0.0234,-0.0247,-0.0239,-0.022,-0.0218,-0.0133,-0.0118,-0.0072,0.0031,0.005,0.0034,0.0041,0.0252,0.0255,0.0257,0.015,0.0147,0.0144,0,0,0,0,0,-0.0306,-0.0326,-0.0311,-0.0311,-0.0284,-0.0233,-0.0223,-0.02,-0.0219,-0.0188,-0.0135,-0.0121,0.0062,0.0039,0.0062,0.0047,0.025,0.0254,0.0257,0.0152,0.0147,0.0144,0,0,0,0,0,0,-0.0321,-0.0324,-0.0307,-0.0325,-0.027,-0.0229,-0.022,-0.0201,-0.0138,-0.0142,-0.0085,-0.0063,0.0003,0.0063,0.0036,0.0128,0.0152,0.016,0.0064,0.0061,0.0058,0.0029,0.0048,0,0,0,0,0,-0.0328,-0.035,-0.0308,-0.0314,-0.0297,-0.0255,-0.0235,-0.0209,-0.0159,-0.0135,-0.0074,-0.0012,0.0038,0.0079,0.0148,0.0216,0.0244,0.0221,0.0217,0.0214,0.021,0.0259,0.0258,0.027,0.027,0.027,0,0,-0.0338,-0.0341,-0.0352,-0.0319,-0.0289,-0.0261,-0.0244,-0.0212,-0.0192,-0.0122,-0.0071,-0.0014,0.0057,0.0117,0.0151,0.0162,0.0222,0.0218,0.0214,0.0212,0.0262,0.026,0.0258,0.0273,0.0272,0.0272,0,0,-0.0365,-0.0366,-0.0383,-0.0342,-0.0296,-0.0266,-0.0259,-0.0199,-0.0177,-0.0104,-0.0075,-0.0019,0.0086,0.012,0.0146,0.018,0.0202,0.0197,0.0158,0.0204,0.0202,0.0201,0.0202,0.0202,0.0197,0.0196,0.0196,0,-0.0368,-0.0391,-0.0367,-0.0354,-0.0339,-0.0278,-0.0264,-0.0224,-0.0136,-0.0117,-0.0094,0.0021,0.0078,0.0113,0.0115,0.0165,0.0186,0.0151,0.0193,0.0193,0.0194,0.0197,0.0198,0.0191,0.0192,0.0193,0.0193,0,-0.0399,-0.04,-0.0405,-0.0384,-0.0347,-0.0326,-0.027,-0.0228,-0.0201,-0.0158,-0.0098,-0.0013,0.005,0.0066,0.0097,0.0121,0.013,0.0174,0.0184,0.0185,0.0189,0.0192,0.0184,0.0186,0.0188,0.0189,0,0,-0.0466,-0.0436,-0.0439,-0.0428,-0.0367,-0.0345,-0.0314,-0.0266,-0.0262,-0.0171,-0.0155,-0.0079,-0.0037,-0.0001,0.0043,0.0079,0.0082,0.0118,0.0123,0.0086,0.015,0.0153,0.0156,0.0129,0.0129,0.013,0.0138,0,-0.0495,-0.0502,-0.0473,-0.0461,-0.0456,-0.0392,-0.037,-0.0314,-0.0264,-0.0218,-0.0153,-0.0105,-0.0064,-0.0042,-0.0001,0.0075,0.0091,0.0074,0.0187,0.019,0.0165,0.0162,0.0193,0.0204,0.0141,0.0141,0.0142,0,-0.0551,-0.0547,-0.0553,-0.0517,-0.0509,-0.0488,-0.0457,-0.042,-0.0344,-0.0303,-0.0242,-0.0174,-0.0116,-0.0073,0.0027,0.0014,0.0066,0.0118,0.0121,0.0166,0.02,0.0207,0.0212,0.037,0.0147,0.0146,0.0146,0,-0.0644,-0.0614,-0.0632,-0.0616,-0.0555,-0.0551,-0.0522,-0.0454,-0.0433,-0.0356,-0.0325,-0.0234,-0.0185,-0.0096,0.0003,0.0022,0.0106,0.0156,0.0196,0.0195,0.0268,0.0273,0.0415,0.0215,0.0215,0.0215,0.0215,0,-0.0717,-0.0726,-0.0679,-0.0684,-0.0697,-0.0628,-0.0629,-0.0582,-0.0517,-0.0489,-0.0379,-0.0341,-0.0184,-0.0109,-0.002,0.0083,0.0089,0.018,0.0206,0.023,0.0231,0.0411,0.0479,0.0215,0.0215,0.0215,0.0215,0,-0.0812,-0.0787,-0.0795,-0.075,-0.0741,-0.0752,-0.0701,-0.0695,-0.0623,-0.0581,-0.0558,-0.0422,-0.0314,-0.0188,-0.0044,0.0049,0.0236,0.0175,0.0165,0.019,0.0402,0.0461,0.0596,0.0683,0.0243,0.0243,0.0243,0,-0.0858,-0.0875,-0.0857,-0.0863,-0.0844,-0.0841,-0.0836,-0.0766,-0.0745,-0.0633,-0.0617,-0.05,-0.0417,-0.0224,-0.0042,0.0102,0.0231,0.0223,0.0282,0.0411,0.0498,0.0532,0.0598,0.0321,0.0322,0.0323,0.0323,0,-0.0915,-0.0916,-0.0915,-0.0937,-0.0944,-0.0947,-0.0926,-0.0927,-0.0833,-0.0786,-0.0703,-0.0631,-0.0426,-0.0221,-0.0023,0.0082,0.0353,0.0242,0.0406,0.059,0.0611,0.0706,0.0285,0.0329,0.0329,0.0328,0.0328,0.0328,-0.0937,-0.096,-0.0958,-0.0977,-0.1,-0.1014,-0.1004,-0.0978,-0.0944,-0.0835,-0.0791,-0.0643,-0.0335,-0.0035,0.0082,0.0417,0.0402,0.0553,0.0613,0.0634,0.0735,0.0295,0.0356,0.0356,0.0356,0.0355,0.0355,0,-0.0917,-0.0944,-0.0982,-0.099,-0.1015,-0.1022,-0.1021,-0.0985,-0.0936,-0.0859,-0.0781,-0.0442,-0.0146,0.0171,0.0604,0.0794,0.085,0.09,0.0993,0.1045,0.0692,0.0716,0.0823,0.0823,0.0823,0.0823,0.0823,0.0823,-0.0894,-0.0916,-0.0941,-0.0965,-0.0987,-0.0981,-0.0974,-0.0938,-0.0867,-0.0688,-0.049,-0.0375,0.0095,0.0736,0.1152,0.1192,0.1383,0.1341,0.1443,0.1243,0.1216,0.1191,0.1234,0.1448,0.1448,0.1795,0.1799,0.1802]}],[{"header":{"parameterUnit":"m.s-1","parameterCategory":2,"la1":30.2991,"la2":30.254,"lo1":-89.0895,"lo2":-89.0444,"dy":0.0017,"dx":0.0017,"nx":28,"ny":28,"refTime":"2026-02-01T09:00:00:Z","depth":"2","parameterNumber":2,"parameterNumberName":"U-component_of_CURRENTS"},"data":[0,0,0,0,0,0,0,0,0,0,0,0,0,0,0,0,0,0,0,0,0,0,0,0,0,0,0,0,0,0,0,0,0,0,0,0,0,0,0,0,0,0,0,0,0,0,0,0,0,0,0,0,0,0,0,0,0,0,-0.2267,-0.2267,0,-0.2316,-0.2316,-0.2316,-0.226,-0.2258,-0.2257,-0.2255,-0.2265,-0.2267,-0.2269,0,0,0,0,0,0,0,0,0,0,0,0,0,-0.2128,-0.213,-0.2266,-0.2268,-0.2269,-0.2316,-0.2316,-0.2316,-0.226,-0.2258,-0.2256,-0.2254,-0.2265,-0.2267,-0.2269,0,0,0,0,0,0,0,0,0,0,0,0,0,-0.2179,-0.2131,-0.2266,-0.225,-0.225,-0.2316,-0.2316,-0.2316,-0.2261,-0.2258,-0.2256,-0.2253,-0.2264,-0.2267,-0.2269,-0.2336,0,0,-0.2278,-0.2279,0,0,0,0,0,0,0,0,-0.2176,-0.2183,-0.2251,-0.2251,-0.2251,-0.2284,-0.2271,-0.2323,-0.2261,-0.2251,-0.2255,-0.2252,-0.2273,-0.2275,-0.2283,-0.2336,-0.2337,-0.2278,-0.228,-0.2281,-0.2282,0,0,0,0,0,0,0,-0.2173,-0.2181,-0.2281,-0.2253,-0.2253,-0.2242,-0.2246,-0.2281,-0.2271,-0.2252,-0.2249,-0.2264,-0.2272,-0.2281,-0.2283,-0.2337,-0.2278,-0.228,-0.2282,-0.2283,-0.2488,-0.2492,0,0,0,0,0,0,-0.218,-0.2178,-0.2279,-0.2283,-0.2212,-0.2247,-0.2251,-0.2272,-0.2271,-0.2271,-0.2266,-0.2261,-0.2277,-0.228,-0.2283,-0.2359,-0.2281,-0.2283,-0.2285,-0.2484,-0.2489,-0.2493,0,0,0,0,0,0,-0.2177,-0.2189,-0.2277,-0.2235,-0.2246,-0.2253,-0.2276,-0.2274,-0.2285,-0.2283,-0.228,-0.2279,-0.2275,-0.2279,-0.231,-0.2358,-0.2285,-0.2287,-0.248,-0.2486,-0.2491,-0.2512,0,0,0,0,0,0,-0.2173,-0.2188,-0.2195,-0.2236,-0.2249,-0.2292,-0.2279,-0.2277,-0.2301,-0.2294,-0.2295,-0.2292,-0.2274,-0.2306,-0.2312,-0.2361,-0.2289,-0.2475,-0.2483,-0.2489,-0.2507,-0.2518,-0.2528,0,0,0,0,0,-0.2168,-0.2189,-0.2196,-0.2208,-0.2263,-0.2293,-0.2297,-0.229,-0.2304,-0.2295,-0.2311,-0.2292,-0.2357,-0.231,-0.2317,-0.2368,-0.2472,-0.248,-0.2489,-0.2502,-0.2516,-0.2527,0,0,0,0,0,0,-0.2123,-0.2188,-0.2195,-0.2231,-0.225,-0.2284,-0.2286,-0.2308,-0.232,-0.2318,-0.2322,-0.2321,-0.2363,-0.2384,-0.2332,-0.2458,-0.2421,-0.2432,-0.243,-0.2443,-0.2453,-0.2466,-0.2292,0,0,0,0,0,-0.2125,-0.2164,-0.2204,-0.2233,-0.2241,-0.2275,-0.229,-0.2294,-0.2319,-0.2321,-0.2334,-0.2371,-0.2412,-0.2435,-0.2452,-0.2526,-0.2486,-0.2576,-0.2586,-0.2594,-0.2617,-0.2587,-0.2594,-0.2521,-0.2521,-0.2521,0,0,-0.2123,-0.2161,-0.2183,-0.2227,-0.2243,-0.2273,-0.2274,-0.2298,-0.2336,-0.2326,-0.2372,-0.2389,-0.2435,-0.249,-0.2519,-0.2511,-0.259,-0.2605,-0.2611,-0.263,-0.2596,-0.2602,-0.2608,-0.2527,-0.2526,-0.2525,0,0,-0.212,-0.2161,-0.2177,-0.2203,-0.2235,-0.2271,-0.2286,-0.2326,-0.2341,-0.2403,-0.2408,-0.2462,-0.2528,-0.2564,-0.2599,-0.2699,-0.2629,-0.2719,-0.2796,-0.2766,-0.2769,-0.2772,-0.2687,-0.2683,-0.2744,-0.2744,-0.2744,0,-0.2107,-0.2142,-0.2181,-0.2198,-0.2233,-0.2279,-0.2304,-0.2344,-0.2393,-0.2425,-0.2417,-0.2545,-0.2573,-0.2669,-0.2711,-0.2719,-0.2663,-0.2728,-0.2771,-0.2774,-0.2776,-0.2689,-0.2683,-0.2746,-0.2746,-0.2745,-0.2745,0,-0.2098,-0.2141,-0.2154,-0.221,-0.2247,-0.228,-0.2346,-0.239,-0.2447,-0.2489,-0.2573,-0.2618,-0.2699,-0.2735,-0.2761,-0.283,-0.2766,-0.2758,-0.2717,-0.2783,-0.2688,-0.2682,-0.2749,-0.2748,-0.2747,-0.2747,0,0,-0.2051,-0.2132,-0.2136,-0.2182,-0.2262,-0.2304,-0.2382,-0.2462,-0.2542,-0.2587,-0.2664,-0.2775,-0.2798,-0.2846,-0.2879,-0.2894,-0.2862,-0.2853,-0.285,-0.2729,-0.2738,-0.2618,-0.2598,-0.2837,-0.2837,-0.2838,-0.2644,0,-0.2031,-0.2076,-0.2125,-0.2211,-0.226,-0.2343,-0.2431,-0.2516,-0.2596,-0.2675,-0.2735,-0.2815,-0.2841,-0.2891,-0.2908,-0.2889,-0.2855,-0.2912,-0.2729,-0.2723,-0.2576,-0.2592,-0.2435,-0.2245,-0.2638,-0.2636,-0.2636,0,-0.1998,-0.2055,-0.2106,-0.2263,-0.2288,-0.236,-0.2524,-0.2606,-0.2724,-0.2779,-0.2855,-0.2874,-0.2945,-0.2934,-0.2905,-0.293,-0.2843,-0.2802,-0.2792,-0.2677,-0.2594,-0.2258,-0.2217,-0.2624,-0.2625,-0.2626,-0.2627,0,-0.195,-0.2058,-0.2109,-0.2151,-0.2312,-0.2381,-0.2495,-0.2641,-0.2725,-0.2842,-0.2887,-0.2943,-0.2965,-0.291,-0.2835,-0.2864,-0.2728,-0.2744,-0.253,-0.2517,-0.2352,-0.2325,-0.2662,-0.2662,-0.2663,-0.2663,-0.2664,0,-0.1924,-0.1984,-0.2109,-0.2141,-0.2271,-0.2397,-0.2541,-0.2657,-0.28,-0.286,-0.2942,-0.2944,-0.2957,-0.2873,-0.2806,-0.2635,-0.2686,-0.2536,-0.2471,-0.2353,-0.233,-0.2657,-0.2659,-0.2656,-0.2658,-0.2659,-0.266,0,-0.1871,-0.1929,-0.2005,-0.2164,-0.2244,-0.2338,-0.2565,-0.266,-0.2816,-0.2884,-0.2905,-0.2935,-0.2823,-0.2768,-0.2641,-0.2574,-0.2441,-0.2337,-0.2174,-0.2096,-0.2252,-0.2258,-0.2117,-0.2111,-0.2107,-0.2103,-0.2099,0,-0.184,-0.1871,-0.1999,-0.2057,-0.2138,-0.2315,-0.2433,-0.2641,-0.2698,-0.2828,-0.2796,-0.2752,-0.2619,-0.2413,-0.2291,-0.211,-0.2214,-0.1867,-0.1932,-0.2251,-0.2202,-0.2216,-0.2228,-0.1693,-0.1687,-0.1682,-0.1678,0,-0.1799,-0.182,-0.1884,-0.1998,-0.2105,-0.2223,-0.238,-0.2411,-0.2584,-0.2589,-0.2504,-0.2422,-0.2277,-0.2016,-0.1853,-0.1741,-0.1915,-0.1754,-0.2105,-0.1875,-0.1841,-0.1797,-0.1825,-0.1631,-0.1636,-0.1639,-0.1642,-0.1644,-0.1765,-0.1783,-0.1844,-0.196,-0.206,-0.2095,-0.2098,-0.2163,-0.2156,-0.2113,-0.214,-0.1978,-0.1956,-0.1609,-0.1455,-0.1378,-0.1531,-0.1485,-0.1505,-0.153,-0.1535,-0.1497,-0.1219,-0.1221,-0.1223,-0.1225,-0.1226,0,-0.1777,-0.1804,-0.1834,-0.1905,-0.192,-0.2032,-0.2036,-0.1942,-0.178,-0.1771,-0.166,-0.1443,-0.1258,-0.1253,-0.1058,-0.1003,-0.1037,-0.0958,-0.1028,-0.1073,-0.1113,-0.1104,-0.0669,-0.0667,-0.0666,-0.0664,0,0,-0.1789,-0.1794,-0.1781,-0.1755,-0.1811,-0.1757,-0.1691,-0.1497,-0.1401,-0.1205,-0.1134,-0.1218,-0.1231,-0.0973,-0.089,-0.0753,-0.0911,-0.07,-0.1148,-0.1277,-0.1316,-0.1413,-0.1446,0,0,0,0,0]},{"header":{"parameterUnit":"m.s-1","parameterCategory":2,"la1":30.2991,"la2":30.254,"lo1":-89.0895,"lo2":-89.0444,"dy":0.0017,"dx":0.0017,"nx":28,"ny":28,"refTime":"2026-02-01T09:00:00:Z","depth":"2","parameterNumber":3,"parameterNumberName":"V-component_of_CURRENTS"},"data":[0,0,0,0,0,0,0,0,0,0,0,0,0,0,0,0,0,0,0,0,0,0,0,0,0,0,0,0,0,0,0,0,0,0,0,0,0,0,0,0,0,0,0,0,0,0,0,0,0,0,0,0,0,0,0,0,0,0,-0.0231,-0.0231,0,-0.0236,-0.0236,-0.0236,-0.019,-0.0188,-0.0187,-0.0186,-0.0102,-0.01,-0.0099,0,0,0,0,0,0,0,0,0,0,0,0,0,-0.0178,-0.0179,-0.0231,-0.0231,-0.0231,-0.0236,-0.0236,-0.0236,-0.019,-0.0188,-0.0187,-0.0185,-0.0102,-0.0101,-0.0099,0,0,0,0,0,0,0,0,0,0,0,0,0,-0.0193,-0.0179,-0.023,-0.0209,-0.0207,-0.0236,-0.0236,-0.0236,-0.019,-0.0188,-0.0186,-0.0185,-0.0102,-0.0101,-0.0099,-0.0127,0,0,-0.0094,-0.0094,0,0,0,0,0,0,0,0,-0.0193,-0.0195,-0.0212,-0.021,-0.0208,-0.0211,-0.0187,-0.0196,-0.0191,-0.0196,-0.0186,-0.0184,-0.0131,-0.0127,-0.0133,-0.0123,-0.012,-0.0094,-0.0093,-0.0092,-0.0092,0,0,0,0,0,0,0,-0.0192,-0.0195,-0.0232,-0.0212,-0.021,-0.0198,-0.0198,-0.0189,-0.0172,-0.0195,-0.0192,-0.0194,-0.0129,-0.0135,-0.0131,-0.0118,-0.0094,-0.0093,-0.0092,-0.0091,-0.0047,-0.0047,0,0,0,0,0,0,-0.0194,-0.0194,-0.0232,-0.0233,-0.0196,-0.0201,-0.0201,-0.0211,-0.0174,-0.0168,-0.0196,-0.0192,-0.0139,-0.0133,-0.0127,-0.0115,-0.0092,-0.0091,-0.009,-0.0047,-0.0047,-0.0047,0,0,0,0,0,0,-0.0193,-0.0198,-0.0232,-0.0213,-0.0216,-0.0204,-0.0216,-0.0213,-0.0206,-0.0176,-0.0167,-0.0191,-0.0137,-0.013,-0.0121,-0.0112,-0.009,-0.0089,-0.0048,-0.0047,-0.0047,-0.0117,0,0,0,0,0,0,-0.0192,-0.0198,-0.0206,-0.0214,-0.0218,-0.0258,-0.0218,-0.0214,-0.0211,-0.0206,-0.0169,-0.016,-0.0135,-0.0124,-0.012,-0.011,-0.0088,-0.0048,-0.0048,-0.0047,-0.0115,-0.0119,-0.0123,0,0,0,0,0,-0.019,-0.0221,-0.0207,-0.0211,-0.023,-0.026,-0.0261,-0.0244,-0.0213,-0.0227,-0.0196,-0.0161,-0.0116,-0.0124,-0.0118,-0.0108,-0.0048,-0.0048,-0.0047,-0.0113,-0.0118,-0.0123,0,0,0,0,0,0,-0.0204,-0.0219,-0.0204,-0.0236,-0.0246,-0.0252,-0.0264,-0.0247,-0.0236,-0.0221,-0.0179,-0.017,-0.0158,-0.0125,-0.0134,-0.009,-0.0068,-0.0066,-0.012,-0.0124,-0.0128,-0.0098,-0.0086,0,0,0,0,0,-0.0211,-0.0236,-0.0243,-0.0268,-0.0274,-0.0265,-0.0271,-0.0261,-0.0253,-0.0246,-0.0221,-0.0182,-0.0156,-0.0135,-0.0118,-0.0106,-0.0064,-0.0086,-0.009,-0.0094,-0.0064,-0.0004,0.0,-0.0045,-0.0045,-0.0045,0,0,-0.0224,-0.0234,-0.0248,-0.0272,-0.0274,-0.0296,-0.0264,-0.0282,-0.0286,-0.0239,-0.0236,-0.0208,-0.0159,-0.0147,-0.0134,-0.0114,-0.0069,-0.0093,-0.0097,-0.0064,-0.0003,0.0002,0.0006,-0.0045,-0.0045,-0.0045,0,0,-0.0265,-0.027,-0.03,-0.0313,-0.0324,-0.0322,-0.0326,-0.033,-0.0316,-0.0319,-0.0276,-0.0237,-0.0215,-0.0167,-0.014,-0.015,-0.0102,-0.0144,-0.0128,-0.0073,-0.0068,-0.0063,-0.0051,-0.0045,-0.0132,-0.0132,-0.0132,0,-0.0273,-0.0311,-0.0314,-0.0344,-0.0355,-0.0333,-0.0361,-0.0355,-0.0353,-0.0338,-0.0322,-0.0252,-0.0214,-0.0164,-0.0155,-0.0156,-0.0132,-0.0123,-0.0078,-0.0072,-0.0066,-0.0054,-0.0046,-0.0136,-0.0135,-0.0135,-0.0135,0,-0.0334,-0.0358,-0.0381,-0.0403,-0.0421,-0.0446,-0.0438,-0.0439,-0.0411,-0.039,-0.0349,-0.0295,-0.0235,-0.0221,-0.0185,-0.012,-0.0125,-0.0106,-0.007,-0.0066,-0.0054,-0.0045,-0.014,-0.0139,-0.0138,-0.0137,0,0,-0.0366,-0.0411,-0.0417,-0.0435,-0.0451,-0.0477,-0.048,-0.0477,-0.0454,-0.043,-0.0396,-0.0325,-0.0269,-0.0229,-0.0178,-0.0111,-0.0061,-0.0081,-0.0077,-0.0076,0.0031,0.0039,0.005,-0.0039,-0.0037,-0.0035,0.0004,0,-0.0404,-0.0467,-0.0478,-0.053,-0.056,-0.0546,-0.0547,-0.0536,-0.0498,-0.0465,-0.0384,-0.0333,-0.0281,-0.0236,-0.0164,-0.0076,-0.003,-0.0075,0.0036,0.0039,0.0042,0.0065,0.0071,0.0109,0.0014,0.0016,0.0017,0,-0.0456,-0.0491,-0.0548,-0.0582,-0.0591,-0.0611,-0.0599,-0.0594,-0.0533,-0.049,-0.0415,-0.0361,-0.025,-0.0212,-0.0053,-0.0086,-0.0024,0.0035,0.0037,0.0092,0.0069,0.0102,0.0131,0.0034,0.0032,0.0031,0.003,0,-0.048,-0.054,-0.0584,-0.0601,-0.0633,-0.0643,-0.0642,-0.0599,-0.0571,-0.0491,-0.0446,-0.034,-0.0257,-0.0158,-0.0036,-0.0034,0.0114,0.0123,0.0172,0.017,0.0227,0.0227,0.022,0.022,0.022,0.022,0.022,0,-0.0518,-0.0556,-0.0599,-0.0626,-0.0668,-0.0668,-0.0667,-0.0639,-0.057,-0.0535,-0.0443,-0.0388,-0.0229,-0.0141,-0.0048,0.0095,0.0102,0.0194,0.0201,0.0196,0.0193,0.0182,0.0177,0.0222,0.0221,0.0221,0.0221,0,-0.0539,-0.0566,-0.0625,-0.0668,-0.0684,-0.0707,-0.0698,-0.0681,-0.0596,-0.0544,-0.0516,-0.0393,-0.0268,-0.0153,0.0009,0.0096,0.0209,0.0238,0.0199,0.0203,0.0224,0.0215,0.0325,0.0326,0.0327,0.0328,0.0328,0,-0.0553,-0.0586,-0.0659,-0.0694,-0.0717,-0.0743,-0.0753,-0.0699,-0.0687,-0.0559,-0.0554,-0.0412,-0.0338,-0.0109,0.0058,0.0205,0.0203,0.0304,0.0334,0.0249,0.0245,0.0234,0.0224,0.0353,0.0354,0.0354,0.0355,0,-0.0582,-0.0606,-0.0655,-0.0721,-0.0762,-0.0798,-0.0818,-0.0813,-0.0744,-0.0687,-0.0612,-0.0532,-0.0302,-0.0109,0.0106,0.0195,0.029,0.0323,0.0273,0.0325,0.028,0.0273,0.0262,0.0361,0.036,0.036,0.0359,0.0359,-0.0599,-0.0638,-0.0694,-0.0752,-0.0794,-0.0835,-0.0861,-0.0867,-0.0843,-0.0738,-0.0684,-0.0505,-0.0309,0.0025,0.0164,0.0332,0.0326,0.04,0.0396,0.0393,0.0388,0.0348,0.0438,0.0438,0.0438,0.0438,0.0438,0,-0.0613,-0.0653,-0.0716,-0.0791,-0.0832,-0.0831,-0.0888,-0.0888,-0.0874,-0.0751,-0.0655,-0.0408,-0.0177,0.0033,0.0305,0.0441,0.0436,0.0471,0.0447,0.0441,0.0436,0.0433,0.0495,0.0495,0.0496,0.0496,0,0,-0.0628,-0.0684,-0.0716,-0.0797,-0.0826,-0.0864,-0.0885,-0.0871,-0.0809,-0.0689,-0.0534,-0.0367,-0.0126,0.0075,0.0241,0.0388,0.038,0.0402,0.0346,0.0293,0.0286,0.0388,0.0376,0,0,0,0,0]}],[{"header":{"parameterUnit":"m.s-1","parameterCategory":2,"la1":30.2991,"la2":30.254,"lo1":-89.0895,"lo2":-89.0444,"dy":0.0017,"dx":0.0017,"nx":28,"ny":28,"refTime":"2026-02-01T09:00:00:Z","depth":"4","parameterNumber":2,"parameterNumberName":"U-component_of_CURRENTS"},"data":[0,0,0,0,0,0,0,0,0,0,0,0,0,0,0,0,0,0,0,0,0,0,0,0,0,0,0,0,0,0,0,0,0,0,0,0,0,0,0,0,0,0,0,0,0,0,0,0,0,0,0,0,0,0,0,0,0,0,-0.1512,-0.1512,0,-0.1511,-0.1511,-0.1511,-0.1553,-0.1554,-0.1555,-0.1557,-0.162,-0.1621,-0.1621,0,0,0,0,0,0,0,0,0,0,0,0,0,-0.1466,-0.1467,-0.1512,-0.1512,-0.1512,-0.1511,-0.1511,-0.1511,-0.1553,-0.1554,-0.1556,-0.1557,-0.162,-0.1621,-0.1621,0,0,0,0,0,0,0,0,0,0,0,0,0,-0.1477,-0.1467,-0.1512,-0.1534,-0.1536,-0.1511,-0.1511,-0.1511,-0.1552,-0.1554,-0.1556,-0.1558,-0.162,-0.1621,-0.1622,-0.159,0,0,-0.1624,-0.1624,0,0,0,0,0,0,0,0,-0.1476,-0.1478,-0.1531,-0.1532,-0.1535,-0.1535,-0.1518,-0.1541,-0.1552,-0.1545,-0.1557,-0.1559,-0.1597,-0.16,-0.1593,-0.1593,-0.1596,-0.1624,-0.1625,-0.1625,-0.1625,0,0,0,0,0,0,0,-0.1475,-0.1478,-0.1511,-0.1531,-0.1533,-0.1515,-0.1519,-0.1522,-0.1561,-0.1546,-0.1549,-0.155,-0.1599,-0.1592,-0.1595,-0.1597,-0.1624,-0.1625,-0.1625,-0.1626,-0.1691,-0.1692,0,0,0,0,0,0,-0.148,-0.1478,-0.1511,-0.1511,-0.1511,-0.1515,-0.1519,-0.1532,-0.156,-0.1566,-0.1549,-0.1552,-0.159,-0.1594,-0.1598,-0.166,-0.1625,-0.1626,-0.1626,-0.169,-0.1692,-0.1693,0,0,0,0,0,0,-0.148,-0.1484,-0.1511,-0.1494,-0.1497,-0.1515,-0.1528,-0.1531,-0.1547,-0.1562,-0.1569,-0.1564,-0.1591,-0.1597,-0.1629,-0.166,-0.1626,-0.1627,-0.1689,-0.169,-0.1692,-0.1722,0,0,0,0,0,0,-0.1478,-0.1484,-0.15,-0.1495,-0.1498,-0.15,-0.1526,-0.153,-0.1544,-0.1549,-0.1576,-0.1583,-0.1593,-0.1627,-0.1629,-0.166,-0.1628,-0.1687,-0.1689,-0.1692,-0.172,-0.1725,-0.173,0,0,0,0,0,-0.1477,-0.1481,-0.1501,-0.1505,-0.1519,-0.1499,-0.1499,-0.1516,-0.1543,-0.1539,-0.1577,-0.1583,-0.1644,-0.1628,-0.1631,-0.1663,-0.1686,-0.1689,-0.1691,-0.1718,-0.1724,-0.1729,0,0,0,0,0,0,-0.1467,-0.1485,-0.1508,-0.1519,-0.1516,-0.1507,-0.1503,-0.1522,-0.1544,-0.1563,-0.1587,-0.1595,-0.1639,-0.1642,-0.1624,-0.169,-0.167,-0.1673,-0.1689,-0.1695,-0.17,-0.1689,-0.1628,0,0,0,0,0,-0.1473,-0.149,-0.1493,-0.1505,-0.1499,-0.1507,-0.1507,-0.152,-0.1535,-0.1547,-0.1575,-0.1611,-0.1645,-0.1664,-0.1684,-0.1707,-0.1707,-0.1734,-0.1739,-0.1743,-0.1737,-0.1771,-0.1778,-0.1702,-0.1702,-0.1702,0,0,-0.148,-0.1488,-0.1502,-0.1506,-0.1503,-0.1502,-0.1511,-0.1509,-0.1534,-0.155,-0.1597,-0.1623,-0.1655,-0.1694,-0.1714,-0.1704,-0.1763,-0.1746,-0.175,-0.1741,-0.1775,-0.1782,-0.1789,-0.1704,-0.1704,-0.1703,0,0,-0.1467,-0.1496,-0.1493,-0.1493,-0.1492,-0.1501,-0.1506,-0.1511,-0.1538,-0.1574,-0.1609,-0.1653,-0.1692,-0.1726,-0.1749,-0.1788,-0.1787,-0.1803,-0.1819,-0.1853,-0.1859,-0.1865,-0.1865,-0.187,-0.1807,-0.1807,-0.1807,0,-0.1476,-0.1478,-0.1486,-0.1475,-0.1485,-0.1506,-0.1504,-0.1527,-0.1556,-0.1582,-0.1597,-0.1683,-0.171,-0.177,-0.1793,-0.18,-0.1805,-0.1794,-0.1859,-0.1864,-0.1869,-0.1868,-0.1873,-0.1808,-0.1808,-0.1808,-0.1808,0,-0.1442,-0.1463,-0.1453,-0.1468,-0.1477,-0.1475,-0.1507,-0.1535,-0.1581,-0.1611,-0.1678,-0.1717,-0.1769,-0.1794,-0.1808,-0.1866,-0.1852,-0.1859,-0.1841,-0.1879,-0.1875,-0.188,-0.1811,-0.181,-0.181,-0.1809,0,0,-0.1419,-0.1433,-0.1434,-0.1449,-0.1478,-0.1477,-0.1528,-0.1566,-0.1604,-0.1656,-0.1704,-0.178,-0.1803,-0.183,-0.1859,-0.1891,-0.1936,-0.1892,-0.1893,-0.1884,-0.1988,-0.1822,-0.1812,-0.1958,-0.1959,-0.196,-0.1967,0,-0.1394,-0.1383,-0.1405,-0.1428,-0.1427,-0.148,-0.1521,-0.1571,-0.1625,-0.1674,-0.1738,-0.1793,-0.1819,-0.185,-0.1889,-0.1923,-0.1952,-0.1931,-0.1958,-0.1958,-0.1801,-0.1813,-0.1965,-0.1971,-0.1972,-0.1973,-0.1974,0,-0.1345,-0.1353,-0.1361,-0.1416,-0.142,-0.145,-0.1522,-0.1559,-0.1638,-0.168,-0.1748,-0.1795,-0.1864,-0.1876,-0.1954,-0.194,-0.1967,-0.1987,-0.1988,-0.1822,-0.1801,-0.1929,-0.1982,-0.1982,-0.1981,-0.1981,-0.198,0,-0.1301,-0.1327,-0.1342,-0.1357,-0.1413,-0.1447,-0.1487,-0.1563,-0.1593,-0.1686,-0.1706,-0.1806,-0.1839,-0.1906,-0.1955,-0.1965,-0.2012,-0.2033,-0.1907,-0.1895,-0.2031,-0.2025,-0.2085,-0.2085,-0.2084,-0.2084,-0.2084,0,-0.1256,-0.1272,-0.1327,-0.1334,-0.1362,-0.1417,-0.1461,-0.1513,-0.158,-0.1594,-0.1701,-0.1718,-0.1849,-0.1892,-0.1948,-0.1918,-0.2012,-0.1895,-0.1884,-0.2042,-0.2038,-0.2034,-0.2028,-0.2085,-0.2085,-0.2085,-0.2085,0,-0.1196,-0.1232,-0.1254,-0.1319,-0.134,-0.136,-0.1428,-0.1445,-0.1518,-0.1536,-0.1563,-0.166,-0.1705,-0.1801,-0.1894,-0.1869,-0.1892,-0.1864,-0.1998,-0.1998,-0.1756,-0.1752,-0.1719,-0.1713,-0.1708,-0.1704,-0.1701,0,-0.1157,-0.1161,-0.1228,-0.124,-0.1272,-0.1312,-0.1327,-0.1408,-0.1416,-0.1477,-0.146,-0.1532,-0.1588,-0.1581,-0.17,-0.1767,-0.1769,-0.1756,-0.1779,-0.1724,-0.1719,-0.1722,-0.1725,-0.1693,-0.1692,-0.169,-0.1689,0,-0.1087,-0.1125,-0.1142,-0.1164,-0.1187,-0.12,-0.1227,-0.1219,-0.1281,-0.1355,-0.1337,-0.1371,-0.1397,-0.1484,-0.1527,-0.1587,-0.1752,-0.1705,-0.1717,-0.1738,-0.1692,-0.1692,-0.1701,-0.1672,-0.1674,-0.1676,-0.1677,0,-0.1037,-0.1033,-0.1062,-0.1067,-0.1093,-0.1069,-0.1102,-0.1098,-0.1117,-0.1184,-0.1176,-0.1264,-0.1362,-0.1387,-0.1437,-0.1462,-0.1467,-0.1446,-0.1471,-0.1492,-0.1416,-0.1325,-0.1168,0,0,0,0,0,-0.0978,-0.0956,-0.0957,-0.0954,-0.0976,-0.0984,-0.1018,-0.1051,-0.1105,-0.1053,-0.1113,-0.1142,-0.1186,-0.1251,-0.124,-0.1347,-0.1477,-0.1326,-0.1467,-0.1576,-0.1596,-0.1531,0,0,0,0,0,0,-0.0934,-0.0936,-0.0921,-0.0854,-0.0831,-0.0831,-0.0847,-0.0885,-0.0873,-0.095,-0.0999,-0.1061,-0.1149,-0.1184,-0.1215,-0.1233,-0.1295,-0.1395,-0.1391,-0.1565,-0.1583,-0.1599,-0.1539,0,0,0,0,0]},{"header":{"parameterUnit":"m.s-1","parameterCategory":2,"la1":30.2991,"la2":30.254,"lo1":-89.0895,"lo2":-89.0444,"dy":0.0017,"dx":0.0017,"nx":28,"ny":28,"refTime":"2026-02-01T09:00:00:Z","depth":"4","parameterNumber":3,"parameterNumberName":"V-component_of_CURRENTS"},"data":[0,0,0,0,0,0,0,0,0,0,0,0,0,0,0,0,0,0,0,0,0,0,0,0,0,0,0,0,0,0,0,0,0,0,0,0,0,0,0,0,0,0,0,0,0,0,0,0,0,0,0,0,0,0,0,0,0,0,-0.0185,-0.0185,0,-0.0223,-0.0223,-0.0223,-0.0188,-0.0186,-0.0185,-0.0184,-0.0151,-0.0152,-0.0152,0,0,0,0,0,0,0,0,0,0,0,0,0,-0.0111,-0.0113,-0.0185,-0.0185,-0.0186,-0.0223,-0.0223,-0.0224,-0.0188,-0.0186,-0.0185,-0.0183,-0.0151,-0.0152,-0.0152,0,0,0,0,0,0,0,0,0,0,0,0,0,-0.0145,-0.0113,-0.0185,-0.0172,-0.0172,-0.0222,-0.0223,-0.0224,-0.0188,-0.0186,-0.0184,-0.0182,-0.0151,-0.0152,-0.0152,-0.02,0,0,-0.0155,-0.0155,0,0,0,0,0,0,0,0,-0.0144,-0.0148,-0.0174,-0.0173,-0.0173,-0.0198,-0.0185,-0.0212,-0.0189,-0.0182,-0.0183,-0.0181,-0.0162,-0.0162,-0.0175,-0.0198,-0.0197,-0.0155,-0.0155,-0.0155,-0.0156,0,0,0,0,0,0,0,-0.0141,-0.0147,-0.02,-0.0174,-0.0174,-0.0175,-0.0177,-0.0191,-0.0182,-0.0182,-0.018,-0.0185,-0.0161,-0.0174,-0.0174,-0.0197,-0.0155,-0.0155,-0.0156,-0.0156,-0.0215,-0.0216,0,0,0,0,0,0,-0.0138,-0.0145,-0.0198,-0.0201,-0.0152,-0.0178,-0.0181,-0.0192,-0.0184,-0.0181,-0.0187,-0.0183,-0.0174,-0.0173,-0.0172,-0.02,-0.0155,-0.0156,-0.0157,-0.0214,-0.0215,-0.0217,0,0,0,0,0,0,-0.0136,-0.0143,-0.0197,-0.0173,-0.018,-0.0181,-0.0195,-0.0194,-0.0199,-0.0188,-0.0183,-0.0191,-0.0172,-0.0171,-0.019,-0.0199,-0.0156,-0.0157,-0.0213,-0.0215,-0.0216,-0.0273,0,0,0,0,0,0,-0.0134,-0.0142,-0.0152,-0.0173,-0.0181,-0.0234,-0.0197,-0.0196,-0.0206,-0.0201,-0.0191,-0.0186,-0.0171,-0.0189,-0.019,-0.0199,-0.0158,-0.0211,-0.0214,-0.0216,-0.027,-0.0276,-0.0282,0,0,0,0,0,-0.0131,-0.0163,-0.0153,-0.0159,-0.0194,-0.0236,-0.0241,-0.0234,-0.0208,-0.0227,-0.0216,-0.0186,-0.0202,-0.0191,-0.0193,-0.0202,-0.021,-0.0213,-0.0215,-0.0267,-0.0275,-0.0282,0,0,0,0,0,0,-0.014,-0.0163,-0.0152,-0.0188,-0.0209,-0.023,-0.0249,-0.024,-0.0249,-0.024,-0.0214,-0.0211,-0.0225,-0.0215,-0.0203,-0.0225,-0.0196,-0.0199,-0.0235,-0.0243,-0.0249,-0.0253,-0.0158,0,0,0,0,0,-0.0146,-0.0172,-0.0191,-0.022,-0.0231,-0.0239,-0.0253,-0.0251,-0.0261,-0.0262,-0.0255,-0.0245,-0.0243,-0.0242,-0.0244,-0.027,-0.0227,-0.0272,-0.0279,-0.0284,-0.0289,-0.0242,-0.0244,-0.0225,-0.0225,-0.0225,0,0,-0.0158,-0.0173,-0.0187,-0.0223,-0.0236,-0.0265,-0.0242,-0.0275,-0.0291,-0.0259,-0.0282,-0.0272,-0.0255,-0.0276,-0.028,-0.0265,-0.0265,-0.0287,-0.0292,-0.0294,-0.0245,-0.0246,-0.0247,-0.0227,-0.0227,-0.0226,0,0,-0.0196,-0.0208,-0.0237,-0.0258,-0.0284,-0.0294,-0.0302,-0.0327,-0.0328,-0.0358,-0.0328,-0.033,-0.0338,-0.0327,-0.0319,-0.0365,-0.03,-0.036,-0.0395,-0.035,-0.0351,-0.0351,-0.0286,-0.028,-0.0362,-0.0362,-0.0362,0,-0.0205,-0.0242,-0.0255,-0.0285,-0.0304,-0.0305,-0.0339,-0.0352,-0.0378,-0.0388,-0.0369,-0.0377,-0.036,-0.0371,-0.0381,-0.0378,-0.0333,-0.0367,-0.0356,-0.0356,-0.0355,-0.0288,-0.028,-0.0365,-0.0364,-0.0364,-0.0364,0,-0.0259,-0.0286,-0.031,-0.034,-0.0367,-0.0404,-0.0418,-0.0442,-0.0439,-0.0446,-0.0465,-0.0451,-0.045,-0.0443,-0.0424,-0.0418,-0.0381,-0.0368,-0.0334,-0.036,-0.0288,-0.0279,-0.0369,-0.0368,-0.0367,-0.0366,0,0,-0.0286,-0.0336,-0.0343,-0.0362,-0.0398,-0.043,-0.0463,-0.0499,-0.052,-0.0529,-0.055,-0.0542,-0.0529,-0.052,-0.0496,-0.046,-0.0406,-0.0414,-0.041,-0.0343,-0.0285,-0.0261,-0.0248,-0.0386,-0.0386,-0.0385,-0.0232,0,-0.0321,-0.038,-0.0399,-0.0455,-0.0486,-0.0501,-0.0535,-0.0564,-0.0579,-0.0604,-0.0582,-0.0595,-0.0558,-0.0558,-0.0518,-0.0442,-0.0388,-0.0448,-0.0276,-0.0271,-0.024,-0.0239,-0.0383,-0.0225,-0.0223,-0.0222,-0.022,0,-0.0363,-0.0398,-0.0456,-0.0509,-0.0525,-0.056,-0.0615,-0.0645,-0.0673,-0.0682,-0.0686,-0.0669,-0.0636,-0.0595,-0.0465,-0.0502,-0.0397,-0.0326,-0.0319,-0.0272,-0.0231,-0.0197,-0.0203,-0.0205,-0.0206,-0.0207,-0.0208,0,-0.0374,-0.0438,-0.0484,-0.0503,-0.0563,-0.0596,-0.0629,-0.0671,-0.0701,-0.0729,-0.0747,-0.0711,-0.0686,-0.0571,-0.0429,-0.0439,-0.0264,-0.0257,-0.0131,-0.0126,-0.0167,-0.0169,-0.0146,-0.0146,-0.0146,-0.0147,-0.0147,0,-0.0402,-0.044,-0.0495,-0.0522,-0.0588,-0.0617,-0.0684,-0.0716,-0.0754,-0.0785,-0.0783,-0.0782,-0.0676,-0.0574,-0.0436,-0.0252,-0.0258,-0.0131,-0.009,-0.0194,-0.02,-0.0159,-0.0163,-0.0141,-0.0142,-0.0143,-0.0144,0,-0.0406,-0.044,-0.0499,-0.0568,-0.0595,-0.064,-0.0717,-0.0759,-0.0793,-0.0828,-0.0836,-0.0816,-0.0685,-0.0554,-0.0358,-0.0258,-0.0088,-0.0012,-0.0118,-0.0086,0.0025,0.0017,0.0134,0.0136,0.0138,0.0139,0.014,0,-0.0411,-0.0441,-0.0526,-0.057,-0.0606,-0.0674,-0.0723,-0.0774,-0.0805,-0.0834,-0.0838,-0.0761,-0.0718,-0.0422,-0.0292,-0.0035,0.0001,0.0087,0.0035,0.0023,0.0052,0.0041,0.003,0.0143,0.0144,0.0144,0.0144,0,-0.0424,-0.0455,-0.0503,-0.0587,-0.065,-0.0715,-0.0775,-0.0793,-0.0834,-0.0867,-0.0813,-0.071,-0.0568,-0.0392,-0.0199,-0.0017,0.0017,0.0105,0.0102,0.0055,0.0036,0.006,0.0048,0.015,0.015,0.0149,0.0149,0,-0.0433,-0.0469,-0.0534,-0.0605,-0.0682,-0.0734,-0.0766,-0.0779,-0.0802,-0.0813,-0.0781,-0.0666,-0.0607,-0.0377,-0.0193,-0.0028,0.0007,0.0053,0.0054,0.0048,-0.0039,-0.0079,0.0042,0,0,0,0,0,-0.0444,-0.0486,-0.0551,-0.0633,-0.0702,-0.0744,-0.0795,-0.0813,-0.0835,-0.0783,-0.0779,-0.0639,-0.0417,-0.0341,-0.0163,-0.0166,0.0028,0.0045,0.008,0.0184,0.0177,0.0089,0,0,0,0,0,0,-0.046,-0.0518,-0.0547,-0.0633,-0.0688,-0.0761,-0.0789,-0.0802,-0.0761,-0.0763,-0.0635,-0.0599,-0.0374,-0.0509,-0.0162,-0.012,-0.0074,0.0139,0.0143,0.0188,0.0181,0.0176,0.0083,0,0,0,0,0]}]]